GLOBAL-12 (49772 NORAD) Tracking and Keplerian Element Data

This shows tracking and keplerian element data for the satellite.

Feedback or suggestion? Click here.




ElementValue
Catalog49772
NameGLOBAL-12
Epoch Orbit2627
Epoch Day140.81959153
Epoch Year2022
RAAN235.003
Inclination53.223
Eccentricity0.0002302
Argument of Perigee249.2646
Mean Anonmoly110.336
Mean Motion15.46050116
Decay Rate4.537E-05
L11 49772U 21115BA 22140.81959153 .00004537 00000+0 10000-3 0 9991
L22 49772 53.2230 235.0030 0002302 249.2646 110.3360 15.46050116 26279

Live tracking and technical data element details for GLOBAL-12 (NORAD 49772). GLOBAL-12 can be tracked NOW for your location showing map with azimuth and elevation plus other details from your city location.

Track the satellite on the map from your city or location and see movement details for azimuth, elevation, latitude, longitude, range, height, and movement on the map or in text.







IsCatalogInMostPopularTable: catalog: 49772, numindb: 24
Update: records affected: 1



GetName: 49772 GLOBAL-12

Hit Count: updated at: Mon, 23 May 2022 19:57:44 GMT